ANA678 RJOA-RJTT

Flight info

Callsign ANA678
Flight time 0h 57m
Altitude 39000
Route BOLIG IKUNO MIDER Y71 XAC
Aircraft B78X/H-SDE1E2E3FGHIJ2J3J4J5M1RWXY/LB1D1

Departure

Time 2026-04-30 06:07
Airport Hiroshima Airport (RJOA)

Arrival

Time 2026-04-30 07:04
Airport Tokyo Haneda International Airport (RJTT)
Time Latitude Longitude Altitude Speed Heading
2026-04-30 05:29 34.43896 132.91930 1084 ft 0 kts 360°
2026-04-30 05:57 34.43895 132.91930 1084 ft 1 kts 360°
2026-04-30 05:57 34.43876 132.91930 1082 ft 4 kts 357°
2026-04-30 05:57 34.43849 132.91932 1081 ft 4 kts 351°
2026-04-30 05:57 34.43823 132.91938 1081 ft 4 kts 345°
2026-04-30 05:58 34.43797 132.91948 1080 ft 4 kts 338°
2026-04-30 05:58 34.43773 132.91961 1079 ft 3 kts 330°
2026-04-30 05:58 34.43765 132.91966 1080 ft 0 kts 329°
2026-04-30 06:00 34.43766 132.91966 1080 ft 0 kts 329°
2026-04-30 06:01 34.43769 132.91963 1080 ft 3 kts 326°
2026-04-30 06:01 34.43772 132.91951 1078 ft 1 kts 288°
2026-04-30 06:01 34.43773 132.91914 1079 ft 11 kts 269°
2026-04-30 06:01 34.43770 132.91793 1083 ft 14 kts 271°
2026-04-30 06:02 34.43772 132.91672 1085 ft 14 kts 271°
2026-04-30 06:02 34.43771 132.91522 1084 ft 22 kts 269°
2026-04-30 06:02 34.43771 132.91333 1086 ft 22 kts 271°
2026-04-30 06:02 34.43774 132.91153 1089 ft 21 kts 271°
2026-04-30 06:03 34.43773 132.90970 1087 ft 23 kts 269°
2026-04-30 06:03 34.43771 132.90780 1089 ft 22 kts 270°
2026-04-30 06:03 34.43772 132.90589 1088 ft 24 kts 271°
2026-04-30 06:03 34.43769 132.90395 1085 ft 19 kts 262°
2026-04-30 06:04 34.43710 132.90323 1086 ft 8 kts 186°
2026-04-30 06:04 34.43655 132.90327 1086 ft 11 kts 170°
2026-04-30 06:04 34.43604 132.90372 1088 ft 6 kts 114°
2026-04-30 06:05 34.43606 132.90623 1086 ft 67 kts 90°
2026-04-30 06:05 34.43606 132.91532 1087 ft 147 kts 90°
2026-04-30 06:05 34.43616 132.92900 1419 ft 158 kts 79°
2026-04-30 06:05 34.43567 132.94216 1584 ft 145 kts 92°
2026-04-30 06:06 34.43551 132.95390 1604 ft 148 kts 87°
2026-04-30 06:06 34.43590 132.96454 1609 ft 166 kts 86°
2026-04-30 06:07 34.43605 132.97348 2012 ft 165 kts 88°
2026-04-30 06:07 34.43605 132.98101 2383 ft 166 kts 89°
2026-04-30 06:07 34.43783 132.99499 2896 ft 181 kts 68°
2026-04-30 06:08 34.44723 133.00674 3436 ft 212 kts 37°
2026-04-30 06:08 34.46111 133.01540 4102 ft 237 kts 30°
2026-04-30 06:08 34.47669 133.02463 4925 ft 261 kts 30°
2026-04-30 06:08 34.49351 133.03511 5715 ft 283 kts 31°
2026-04-30 06:09 34.51130 133.04638 6753 ft 291 kts 30°
2026-04-30 06:09 34.52949 133.05780 7871 ft 298 kts 29°
2026-04-30 06:09 34.54797 133.06937 9000 ft 303 kts 28°
2026-04-30 06:09 34.56683 133.08120 10096 ft 308 kts 27°
2026-04-30 06:10 34.58640 133.09350 10864 ft 325 kts 26°
2026-04-30 06:10 34.60713 133.10653 11537 ft 347 kts 26°
2026-04-30 06:10 34.62893 133.12020 12222 ft 367 kts 26°
2026-04-30 06:10 34.65208 133.13481 13106 ft 378 kts 26°
2026-04-30 06:11 34.67557 133.14965 14096 ft 385 kts 25°
2026-04-30 06:11 34.69966 133.16481 14989 ft 393 kts 25°
2026-04-30 06:11 34.72414 133.18024 15805 ft 401 kts 25°
2026-04-30 06:11 34.74923 133.19607 16626 ft 409 kts 24°
2026-04-30 06:12 34.77465 133.21215 17431 ft 417 kts 24°
2026-04-30 06:12 34.80068 133.22860 18244 ft 424 kts 24°
2026-04-30 06:12 34.82715 133.24534 18945 ft 431 kts 24°
2026-04-30 06:12 34.85251 133.26528 19629 ft 443 kts 37°
2026-04-30 06:13 34.87396 133.29255 20335 ft 453 kts 52°
2026-04-30 06:13 34.88990 133.32599 20989 ft 460 kts 68°
2026-04-30 06:13 34.89955 133.36326 21646 ft 465 kts 76°
2026-04-30 06:13 34.90770 133.40136 22281 ft 471 kts 77°
2026-04-30 06:14 34.91556 133.44028 22918 ft 477 kts 78°
2026-04-30 06:14 34.92374 133.48026 23566 ft 484 kts 77°
2026-04-30 06:14 34.93206 133.51976 24039 ft 490 kts 77°
2026-04-30 06:14 34.94053 133.56007 24587 ft 494 kts 77°
2026-04-30 06:15 34.94895 133.60104 25105 ft 499 kts 77°
2026-04-30 06:15 34.95740 133.64224 25671 ft 505 kts 78°
2026-04-30 06:15 34.96602 133.68400 26149 ft 511 kts 78°
2026-04-30 06:15 34.97477 133.72630 26671 ft 516 kts 78°
2026-04-30 06:16 34.98350 133.76887 27206 ft 521 kts 78°
2026-04-30 06:16 34.99235 133.81209 27685 ft 526 kts 78°
2026-04-30 06:16 35.00124 133.85552 28159 ft 531 kts 78°
2026-04-30 06:16 35.01025 133.89958 28608 ft 537 kts 79°
2026-04-30 06:17 35.01932 133.94410 29082 ft 542 kts 79°
2026-04-30 06:17 35.02841 133.98881 29555 ft 547 kts 79°
2026-04-30 06:17 35.03761 134.03413 30023 ft 551 kts 79°
2026-04-30 06:17 35.04683 134.07964 30431 ft 556 kts 79°
2026-04-30 06:18 35.05602 134.12510 30818 ft 560 kts 79°
2026-04-30 06:18 35.06535 134.17132 31201 ft 564 kts 79°
2026-04-30 06:18 35.07476 134.21807 31588 ft 567 kts 80°
2026-04-30 06:18 35.08420 134.26510 32011 ft 571 kts 80°
2026-04-30 06:19 35.09364 134.31221 32404 ft 574 kts 81°
2026-04-30 06:19 35.10317 134.35983 32785 ft 577 kts 81°
2026-04-30 06:19 35.11266 134.40731 33429 ft 576 kts 81°
2026-04-30 06:19 35.12215 134.45489 34020 ft 574 kts 82°
2026-04-30 06:20 35.13156 134.50233 34540 ft 573 kts 82°
2026-04-30 06:20 35.14081 134.54909 34932 ft 574 kts 82°
2026-04-30 06:20 35.15034 134.59733 35022 ft 578 kts 82°
2026-04-30 06:21 35.16891 134.69130 35025 ft 574 kts 82°
2026-04-30 06:21 35.18746 134.78594 35035 ft 571 kts 82°
2026-04-30 06:22 35.19410 134.88079 35048 ft 553 kts 103°
2026-04-30 06:22 35.18825 134.92650 35053 ft 539 kts 112°
2026-04-30 06:22 35.17997 134.97134 35049 ft 541 kts 111°
2026-04-30 06:23 35.16324 135.06107 35049 ft 542 kts 112°
2026-04-30 06:23 35.14637 135.15058 35050 ft 541 kts 111°
2026-04-30 06:24 35.12958 135.23969 35048 ft 541 kts 112°
2026-04-30 06:24 35.11257 135.32923 35042 ft 541 kts 112°
2026-04-30 06:25 35.09549 135.41898 35039 ft 542 kts 112°
2026-04-30 06:25 35.07832 135.50865 35037 ft 541 kts 111°
2026-04-30 06:26 35.06120 135.59788 35041 ft 543 kts 111°
2026-04-30 06:26 35.04388 135.68758 35057 ft 544 kts 111°
2026-04-30 06:27 35.02645 135.77768 35064 ft 544 kts 111°
2026-04-30 06:27 35.01052 135.86818 35074 ft 547 kts 109°
2026-04-30 06:28 34.99536 135.95928 35073 ft 548 kts 109°
2026-04-30 06:28 34.98075 136.05058 35078 ft 550 kts 109°
2026-04-30 06:29 34.96580 136.14145 35082 ft 549 kts 109°
2026-04-30 06:29 34.95082 136.23297 35088 ft 551 kts 109°
2026-04-30 06:30 34.93826 136.30915 35087 ft 551 kts 109°
2026-04-30 06:30 34.92127 136.41154 35100 ft 550 kts 109°
2026-04-30 06:31 34.90613 136.50252 35102 ft 550 kts 109°
2026-04-30 06:31 34.89084 136.59385 35098 ft 550 kts 109°
2026-04-30 06:32 34.87551 136.68503 35098 ft 550 kts 109°
2026-04-30 06:32 34.86008 136.77630 35096 ft 550 kts 109°
2026-04-30 06:33 34.84460 136.86750 35097 ft 549 kts 109°
2026-04-30 06:33 34.82960 136.95876 35101 ft 553 kts 103°
2026-04-30 06:34 34.81943 137.05164 35103 ft 553 kts 104°
2026-04-30 06:34 34.80910 137.14372 35108 ft 552 kts 104°
2026-04-30 06:35 34.79878 137.23621 35108 ft 551 kts 104°
2026-04-30 06:35 34.78831 137.32858 35110 ft 550 kts 104°
2026-04-30 06:36 34.77784 137.42079 35118 ft 549 kts 104°
2026-04-30 06:36 34.76730 137.51271 35128 ft 547 kts 104°
2026-04-30 06:37 34.75680 137.60373 35118 ft 546 kts 104°
2026-04-30 06:37 34.74654 137.69545 35127 ft 548 kts 100°
2026-04-30 06:38 34.73776 137.78740 35135 ft 547 kts 103°
2026-04-30 06:38 34.72896 137.87924 35142 ft 547 kts 102°
2026-04-30 06:39 34.72018 137.97110 35140 ft 545 kts 102°
2026-04-30 06:39 34.71453 138.06257 35146 ft 550 kts 94°
2026-04-30 06:40 34.71490 138.15546 35133 ft 549 kts 94°
2026-04-30 06:40 34.71520 138.24854 35132 ft 549 kts 94°
2026-04-30 06:41 34.71545 138.34113 35135 ft 548 kts 94°
2026-04-30 06:41 34.71557 138.41816 35142 ft 548 kts 94°
2026-04-30 06:42 34.71570 138.51061 35148 ft 548 kts 94°
2026-04-30 06:42 34.71572 138.60358 35158 ft 549 kts 94°
2026-04-30 06:43 34.71547 138.69631 35158 ft 548 kts 95°
2026-04-30 06:43 34.71505 138.74245 34695 ft 538 kts 94°
2026-04-30 06:43 34.71499 138.78818 32917 ft 544 kts 93°
2026-04-30 06:43 34.71518 138.83345 31959 ft 529 kts 93°
2026-04-30 06:44 34.71508 138.87762 30860 ft 519 kts 94°
2026-04-30 06:44 34.71477 138.92096 29689 ft 510 kts 93°
2026-04-30 06:44 34.71459 138.96375 28488 ft 500 kts 93°
2026-04-30 06:44 34.71454 139.00558 27334 ft 490 kts 92°
2026-04-30 06:45 34.71441 139.04611 26242 ft 480 kts 92°
2026-04-30 06:45 34.71418 139.08623 25178 ft 471 kts 92°
2026-04-30 06:45 34.71397 139.12576 24132 ft 462 kts 92°
2026-04-30 06:45 34.71379 139.16436 22989 ft 453 kts 92°
2026-04-30 06:46 34.71361 139.20235 21838 ft 443 kts 91°
2026-04-30 06:46 34.71339 139.23934 20736 ft 434 kts 91°
2026-04-30 06:46 34.71316 139.27575 19663 ft 425 kts 91°
2026-04-30 06:46 34.71294 139.31143 18629 ft 417 kts 90°
2026-04-30 06:47 34.71273 139.34621 17495 ft 408 kts 90°
2026-04-30 06:47 34.71250 139.38035 16391 ft 400 kts 90°
2026-04-30 06:47 34.71330 139.41368 15474 ft 386 kts 78°
2026-04-30 06:47 34.72224 139.44298 14891 ft 359 kts 58°
2026-04-30 06:48 34.73523 139.46773 14423 ft 337 kts 52°
2026-04-30 06:48 34.74774 139.49059 14080 ft 318 kts 55°
2026-04-30 06:48 34.75859 139.51362 13454 ft 309 kts 59°
2026-04-30 06:48 34.76836 139.53648 13160 ft 301 kts 59°
2026-04-30 06:49 34.77858 139.55921 13168 ft 307 kts 58°
2026-04-30 06:49 34.78895 139.58149 13171 ft 305 kts 58°
2026-04-30 06:49 34.79938 139.60410 13173 ft 304 kts 58°
2026-04-30 06:49 34.80965 139.62672 13175 ft 305 kts 59°
2026-04-30 06:50 34.81990 139.64927 13177 ft 305 kts 58°
2026-04-30 06:50 34.83024 139.67192 13175 ft 305 kts 58°
2026-04-30 06:50 34.84109 139.69395 13160 ft 302 kts 47°
2026-04-30 06:50 34.85681 139.71013 13120 ft 292 kts 32°
2026-04-30 06:51 34.87303 139.72512 12703 ft 292 kts 33°
2026-04-30 06:51 34.88917 139.74004 12318 ft 291 kts 33°
2026-04-30 06:51 34.90518 139.75466 11940 ft 290 kts 33°
2026-04-30 06:51 34.92146 139.76949 11572 ft 288 kts 34°
2026-04-30 06:52 34.93747 139.78416 11230 ft 287 kts 34°
2026-04-30 06:52 34.95331 139.79869 10894 ft 285 kts 35°
2026-04-30 06:52 34.96891 139.81298 10580 ft 283 kts 35°
2026-04-30 06:52 34.98466 139.82741 10260 ft 282 kts 36°
2026-04-30 06:53 35.00020 139.84166 9952 ft 279 kts 36°
2026-04-30 06:53 35.01571 139.85591 9585 ft 278 kts 36°
2026-04-30 06:53 35.03114 139.87007 9230 ft 277 kts 36°
2026-04-30 06:53 35.04649 139.88417 8885 ft 275 kts 37°
2026-04-30 06:54 35.06177 139.89822 8514 ft 273 kts 37°
2026-04-30 06:54 35.07688 139.91210 8189 ft 270 kts 37°
2026-04-30 06:54 35.09197 139.92600 8177 ft 273 kts 37°
2026-04-30 06:54 35.10696 139.93981 8174 ft 273 kts 37°
2026-04-30 06:55 35.12213 139.95377 8170 ft 273 kts 37°
2026-04-30 06:55 35.13730 139.96775 8176 ft 273 kts 37°
2026-04-30 06:55 35.15378 139.97878 8043 ft 271 kts 11°
2026-04-30 06:55 35.17191 139.98058 7776 ft 261 kts
2026-04-30 06:56 35.18996 139.98110 7501 ft 251 kts 360°
2026-04-30 06:56 35.20743 139.98153 7174 ft 250 kts
2026-04-30 06:56 35.22455 139.98211 6834 ft 246 kts
2026-04-30 06:56 35.24167 139.98275 6502 ft 245 kts
2026-04-30 06:57 35.25856 139.98152 6093 ft 241 kts 341°
2026-04-30 06:57 35.27282 139.97167 5629 ft 236 kts 326°
2026-04-30 06:57 35.28705 139.96164 5269 ft 234 kts 329°
2026-04-30 06:57 35.30430 139.94946 5189 ft 234 kts 329°
2026-04-30 06:58 35.31837 139.93949 4995 ft 235 kts 330°
2026-04-30 06:58 35.33248 139.92952 4703 ft 234 kts 330°
2026-04-30 06:58 35.34589 139.92016 4387 ft 212 kts 331°
2026-04-30 06:58 35.35831 139.91135 4087 ft 204 kts 331°
2026-04-30 06:59 35.37059 139.90278 3822 ft 201 kts 332°
2026-04-30 06:59 35.37860 139.89713 3636 ft 201 kts 332°
2026-04-30 06:59 35.39067 139.88857 3379 ft 191 kts 332°
2026-04-30 06:59 35.40165 139.88103 3136 ft 180 kts 333°
2026-04-30 07:00 35.41591 139.87111 2812 ft 176 kts 333°
2026-04-30 07:00 35.42288 139.86606 2645 ft 175 kts 333°
2026-04-30 07:00 35.43327 139.85868 2423 ft 170 kts 333°
2026-04-30 07:00 35.44349 139.85145 2191 ft 166 kts 333°
2026-04-30 07:01 35.45341 139.84443 1966 ft 163 kts 333°
2026-04-30 07:01 35.46319 139.83752 1745 ft 162 kts 333°
2026-04-30 07:01 35.47280 139.83070 1511 ft 161 kts 333°
2026-04-30 07:01 35.48240 139.82391 1299 ft 157 kts 333°
2026-04-30 07:02 35.49191 139.81718 1084 ft 156 kts 332°
2026-04-30 07:02 35.50143 139.81055 880 ft 155 kts 330°
2026-04-30 07:02 35.51083 139.80390 625 ft 155 kts 330°
2026-04-30 07:02 35.52004 139.79716 460 ft 155 kts 331°
2026-04-30 07:03 35.52956 139.79066 253 ft 155 kts 333°
2026-04-30 07:03 35.53866 139.78417 33 ft 156 kts 332°
2026-04-30 07:03 35.54636 139.77871 27 ft 109 kts 329°
2026-04-30 07:03 35.55164 139.77500 28 ft 68 kts 330°
2026-04-30 07:04 35.55464 139.77354 27 ft 34 kts 355°
2026-04-30 07:04 35.55678 139.77355 27 ft 24 kts 360°
2026-04-30 07:04 35.55800 139.77319 28 ft 16 kts 357°
2026-04-30 07:04 35.55862 139.77377 29 ft 9 kts 55°
2026-04-30 07:05 35.55974 139.77609 29 ft 20 kts 61°
2026-04-30 07:05 35.56042 139.77753 30 ft 19 kts 59°
2026-04-30 07:05 35.56130 139.77936 29 ft 34 kts 59°
2026-04-30 07:06 35.56244 139.78181 31 ft 33 kts 60°
2026-04-30 07:06 35.56333 139.78369 31 ft 20 kts 60°
2026-04-30 07:06 35.56326 139.78460 30 ft 5 kts 137°
2026-04-30 07:06 35.56259 139.78508 31 ft 16 kts 149°
2026-04-30 07:07 35.56156 139.78582 29 ft 19 kts 149°
2026-04-30 07:07 35.56039 139.78665 29 ft 19 kts 153°
2026-04-30 07:07 35.55921 139.78747 29 ft 20 kts 149°
2026-04-30 07:07 35.55766 139.78859 30 ft 31 kts 150°
2026-04-30 07:08 35.55585 139.78987 32 ft 26 kts 150°
2026-04-30 07:08 35.55461 139.79043 32 ft 12 kts 196°
2026-04-30 07:08 35.55440 139.79020 33 ft 7 kts 231°